Location: Mexico
(19.4000°N, 99.1500°W)
Time: 14:06:43
(UTC-06:00)

ISS - Pass Details

Date: 23 March 2017
Orbit: 399 x 409 km, 51.6° (Epoch: 24 March)

Event Time Altitude Azimuth Distance (km) Brightness Sun altitude
Rises 20:07:41 0° 212° (SSW) 2,290 0.3 -19.4°
Reaches altitude 10° 20:09:45 10° 208° (SSW) 1,436 -0.8 -19.9°
Enters shadow 20:11:40 32° 195° (SSW) 708 -2.6 -20.3°
